Location: Unspecified
(47.1121°N, 116.3927°W)
Time: 19:21:06
(UTC-07:00)

ISS - Pass Details

Date: 21 May 2019
Orbit: 407 x 418 km, 51.6° (Epoch: 25 June)

Event Time Altitude Azimuth Distance (km) Brightness Sun altitude
Rises 00:32:19 0° 290° (WNW) 2,365 0.3 -22.7°
Reaches altitude 10° 00:34:30 10° 298° (WNW) 1,502 -0.6 -22.7°
Maximum altitude 00:37:43 41° 10° (N) 627 -2.4 -22.7°
Enters shadow 00:39:34 21° 70° (ENE) 1,008 -1.7 -22.7°
